When you browse on this site, cookies collect data to enhance your experience and personalize the content and advertising you see.
Visit our Privacy Policy to learn more. By continuing to use the site, you agree to this use of cookies and data.
  • In United Kingdom
  • List of Countries
  • For 7 days
  • Water Temperature
  • Satellite Maps
  • Weather Map
  • Weather Widgets
  • user-avatar
    Login

    Hourly Weather Asadabad

    Today, 19 March, Tuesday

    Time Temperature Precipitation Wind Pressure Humidity
    00:00 +10°C° 2.9 mm 3 mps 656 mmHg 72%
    01:00 +10°C° 2.9 mm 3 mps 655 mmHg 76%
    02:00 +9°C° 2.9 mm 3 mps 655 mmHg 81%
    03:00 +9°C° 4.3 mm 3 mps 655 mmHg 82%
    04:00 +8°C° 4.3 mm 3 mps 654 mmHg 83%
    05:00 +8°C° 4.3 mm 2 mps 654 mmHg 84%
    06:00 +8°C° 4.4 mm 2 mps 654 mmHg 85%
    07:00 +8°C° 4.4 mm 2 mps 654 mmHg 85%
    08:00 +8°C° 4.4 mm 2 mps 654 mmHg 85%
    09:00 +8°C° 2 mm 2 mps 654 mmHg 84%
    10:00 +8°C° 2 mm 2 mps 654 mmHg 83%
    11:00 +8°C° 2 mm 2 mps 654 mmHg 83%
    12:00 +9°C° 0.2 mm 2 mps 655 mmHg 78%
    13:00 +10°C° 0.2 mm 2 mps 655 mmHg 74%
    14:00 +12°C° 0.2 mm 2 mps 655 mmHg 70%
    15:00 +13°C° 0.1 mm 2 mps 655 mmHg 68%
    16:00 +13°C° 0.1 mm 2 mps 655 mmHg 67%
    17:00 +13°C° 0.1 mm 2 mps 655 mmHg 65%
    18:00 +12°C° 0.1 mm 2 mps 655 mmHg 67%
    19:00 +10°C° 0.1 mm 2 mps 656 mmHg 69%
    20:00 +9°C° 0.1 mm 2 mps 656 mmHg 70%
    21:00 +9°C° 0 mm 2 mps 656 mmHg 67%
    22:00 +8°C° 0 mm 2 mps 656 mmHg 64%
    23:00 +8°C° 0 mm 3 mps 656 mmHg 61%

    Tomorrow, 20 March, Wednesday

    Time Temperature Precipitation Wind Pressure Humidity
    00:00 +7°C° 0 mm 3 mps 655 mmHg 58%
    01:00 +7°C° 0 mm 3 mps 655 mmHg 55%
    02:00 +7°C° 0 mm 3 mps 655 mmHg 53%
    03:00 +5°C° 0 mm 3 mps 655 mmHg 52%
    04:00 +5°C° 0 mm 3 mps 655 mmHg 51%
    05:00 +5°C° 0 mm 3 mps 655 mmHg 50%
    06:00 +7°C° 0 mm 3 mps 655 mmHg 49%
    07:00 +8°C° 0 mm 3 mps 656 mmHg 49%
    08:00 +9°C° 0 mm 3 mps 656 mmHg 48%
    09:00 +10°C° 0 mm 2 mps 656 mmHg 46%
    10:00 +12°C° 0 mm 1 mps 656 mmHg 44%
    11:00 +13°C° 0 mm 1 mps 656 mmHg 42%
    12:00 +14°C° 0 mm 1 mps 656 mmHg 43%
    13:00 +14°C° 0 mm 1 mps 656 mmHg 43%
    14:00 +14°C° 0 mm 1 mps 656 mmHg 44%
    15:00 +14°C° 0 mm 1 mps 656 mmHg 45%
    16:00 +14°C° 0 mm 1 mps 656 mmHg 45%
    17:00 +14°C° 0 mm 1 mps 656 mmHg 46%
    18:00 +13°C° 0 mm 2 mps 657 mmHg 49%
    19:00 +10°C° 0 mm 2 mps 657 mmHg 51%
    20:00 +9°C° 0 mm 3 mps 657 mmHg 54%
    21:00 +9°C° 0 mm 3 mps 657 mmHg 53%
    22:00 +8°C° 0 mm 3 mps 658 mmHg 52%
    23:00 +8°C° 0 mm 3 mps 658 mmHg 50%

    Day after tomorrow, 21 March, Thursday

    Time Temperature Precipitation Wind Pressure Humidity
    00:00 +8°C° 0 mm 3 mps 658 mmHg 49%
    01:00 +7°C° 0 mm 3 mps 658 mmHg 47%
    02:00 +7°C° 0 mm 3 mps 658 mmHg 46%
    03:00 +7°C° 0 mm 3 mps 658 mmHg 44%
    04:00 +7°C° 0 mm 3 mps 658 mmHg 43%
    05:00 +5°C° 0 mm 3 mps 658 mmHg 41%
    06:00 +7°C° 0 mm 3 mps 658 mmHg 40%
    07:00 +9°C° 0 mm 3 mps 659 mmHg 39%
    08:00 +10°C° 0 mm 3 mps 659 mmHg 38%
    09:00 +12°C° 0 mm 2 mps 659 mmHg 37%
    10:00 +13°C° 0 mm 2 mps 660 mmHg 35%
    11:00 +15°C° 0 mm 1 mps 660 mmHg 34%
    12:00 +15°C° 0 mm 1 mps 660 mmHg 35%
    13:00 +16°C° 0 mm 1 mps 659 mmHg 35%
    14:00 +16°C° 0 mm 1 mps 659 mmHg 36%
    15:00 +16°C° 0 mm 1 mps 659 mmHg 37%
    16:00 +16°C° 0 mm 1 mps 659 mmHg 37%
    17:00 +16°C° 0 mm 1 mps 659 mmHg 38%
    18:00 +15°C° 0 mm 1 mps 659 mmHg 41%
    19:00 +13°C° 0 mm 2 mps 659 mmHg 44%
    20:00 +12°C° 0 mm 2 mps 660 mmHg 47%
    21:00 +10°C° 0 mm 3 mps 660 mmHg 47%
    22:00 +10°C° 0 mm 3 mps 660 mmHg 46%
    23:00 +9°C° 0 mm 3 mps 660 mmHg 46%

    22 March, Friday

    Time Temperature Precipitation Wind Pressure Humidity
    00:00 +9°C° 0 mm 3 mps 660 mmHg 45%
    01:00 +8°C° 0 mm 3 mps 660 mmHg 43%
    02:00 +8°C° 0 mm 3 mps 660 mmHg 42%
    03:00 +8°C° 0 mm 3 mps 660 mmHg 41%
    04:00 +8°C° 0 mm 3 mps 660 mmHg 40%
    05:00 +7°C° 0 mm 3 mps 660 mmHg 39%
    06:00 +8°C° 0 mm 3 mps 660 mmHg 38%
    07:00 +10°C° 0 mm 3 mps 660 mmHg 37%
    08:00 +11°C° 0 mm 3 mps 661 mmHg 35%
    09:00 +13°C° 0 mm 2 mps 661 mmHg 33%
    10:00 +15°C° 0 mm 2 mps 661 mmHg 31%
    11:00 +16°C° 0 mm 1 mps 661 mmHg 29%
    12:00 +16°C° 0 mm 1 mps 661 mmHg 29%
    13:00 +18°C° 0 mm 1 mps 660 mmHg 29%
    14:00 +18°C° 0 mm 1 mps 660 mmHg 29%
    15:00 +18°C° 0 mm 1 mps 660 mmHg 29%
    16:00 +18°C° 0 mm 1 mps 660 mmHg 30%
    17:00 +18°C° 0 mm 1 mps 660 mmHg 30%
    18:00 +16°C° 0 mm 1 mps 660 mmHg 33%
    19:00 +15°C° 0 mm 2 mps 660 mmHg 36%
    20:00 +14°C° 0 mm 2 mps 660 mmHg 39%
    21:00 +13°C° 0 mm 2 mps 660 mmHg 40%
    22:00 +12°C° 0 mm 3 mps 660 mmHg 40%
    23:00 +11°C° 0 mm 3 mps 660 mmHg 41%

    23 March, Saturday

    Time Temperature Precipitation Wind Pressure Humidity
    00:00 +11°C° 0 mm 3 mps 660 mmHg 42%
    01:00 +11°C° 0 mm 3 mps 660 mmHg 43%
    02:00 +11°C° 0 mm 3 mps 659 mmHg 44%
    03:00 +10°C° 0 mm 3 mps 659 mmHg 45%
    04:00 +10°C° 0 mm 3 mps 659 mmHg 46%
    05:00 +9°C° 0 mm 3 mps 659 mmHg 47%
    06:00 +10°C° 0 mm 3 mps 659 mmHg 45%
    07:00 +11°C° 0 mm 3 mps 659 mmHg 43%
    08:00 +12°C° 0 mm 3 mps 660 mmHg 41%
    09:00 +14°C° 0 mm 2 mps 660 mmHg 38%
    10:00 +16°C° 0 mm 2 mps 660 mmHg 35%
    11:00 +18°C° 0 mm 1 mps 660 mmHg 32%
    12:00 +18°C° 0 mm 1 mps 660 mmHg 32%
    13:00 +19°C° 0 mm 1 mps 659 mmHg 32%
    14:00 +19°C° 0 mm 1 mps 659 mmHg 32%
    15:00 +19°C° 0 mm 1 mps 659 mmHg 32%
    16:00 +19°C° 0 mm 1 mps 658 mmHg 33%
    17:00 +19°C° 0 mm 1 mps 658 mmHg 33%
    18:00 +18°C° 0 mm 1 mps 658 mmHg 36%
    19:00 +16°C° 0 mm 2 mps 658 mmHg 40%
    20:00 +15°C° 0 mm 2 mps 658 mmHg 43%
    21:00 +14°C° 0 mm 2 mps 658 mmHg 43%
    22:00 +14°C° 0 mm 2 mps 658 mmHg 43%
    23:00 +13°C° 0 mm 3 mps 658 mmHg 43%

    24 March, Sunday

    Time Temperature Precipitation Wind Pressure Humidity
    00:00 +12°C° 0.1 mm 3 mps 658 mmHg 44%
    01:00 +12°C° 0.1 mm 3 mps 658 mmHg 45%
    02:00 +12°C° 0.1 mm 3 mps 657 mmHg 47%
    03:00 +12°C° 0.1 mm 3 mps 657 mmHg 49%
    04:00 +12°C° 0.1 mm 2 mps 657 mmHg 51%
    05:00 +12°C° 0.1 mm 2 mps 657 mmHg 53%
    06:00 +13°C° 0.1 mm 2 mps 657 mmHg 51%
    07:00 +13°C° 0.1 mm 2 mps 658 mmHg 48%
    08:00 +14°C° 0.1 mm 2 mps 658 mmHg 45%
    09:00 +15°C° 0 mm 2 mps 659 mmHg 43%
    10:00 +16°C° 0 mm 1 mps 659 mmHg 42%
    11:00 +16°C° 0 mm 1 mps 659 mmHg 40%
    12:00 +18°C° 0 mm 1 mps 659 mmHg 39%
    13:00 +19°C° 0 mm 1 mps 659 mmHg 39%
    14:00 +19°C° 0 mm 1 mps 658 mmHg 39%
    15:00 +19°C° 0 mm 1 mps 658 mmHg 40%
    16:00 +19°C° 0 mm 1 mps 658 mmHg 40%
    17:00 +19°C° 0 mm 1 mps 658 mmHg 41%
    18:00 +18°C° 0 mm 1 mps 658 mmHg 47%
    19:00 +15°C° 0 mm 1 mps 658 mmHg 52%
    20:00 +13°C° 0 mm 0 mps 659 mmHg 58%
    21:00 +14°C° 0 mm 1 mps 659 mmHg 55%
    22:00 +14°C° 0 mm 2 mps 659 mmHg 52%
    23:00 +13°C° 0 mm 3 mps 659 mmHg 49%
    Show more